Weather History for Coffeyville, KS

Change the Weather History Date:

Friday, August 30, 2013

  Actual Average Record
Temperature  
Mean Temperature 86 °F -  
Max Temperature 98 °F 90 °F 98 °F (1998)
Min Temperature 73 °F 64 °F 55 °F (2004)
Cooling Degree Days 20    
Growing Degree Days 36 (Base 50)    
Moisture  
Dew Point 71 °F    
Average Humidity 65    
Maximum Humidity 87    
Minimum Humidity 39    
Precipitation  
Precipitation 0.00 in - - ()
Sea Level Pressure  
Sea Level Pressure 29.91 in    
Wind  
Wind Speed 5 mph (South)    
Max Wind Speed 12 mph    
Max Gust Speed -    
Visibility 10 miles    
Events      
Averages and records for this station are not official NWS values.
T = Trace of Precipitation, MM = Missing Value Source: NWS Daily Summary

Daily Weather History Graph

Daily Weather History Graph

Search for Another Location

Airport:

Trip Planner

Search our weather history database for the weather conditions in past years. The results will help you decide how hot, cold, wet, or windy it might be!

Date:

Astronomy

Aug. 30, 2013 Rise Set
Actual Time 6:51 AM CDT 7:53 PM CDT
Civil Twilight 6:24 AM CDT 8:19 PM CDT
Nautical Twilight 5:53 AM CDT 8:51 PM CDT
Astronomical Twilight 5:20 AM CDT 9:24 PM CDT
Moon 1:35 AM CDT (8/30) 4:05 PM CDT (8/30)
Length of Visible Light 13h 55m
Length of Day
13h 01m
Waning Crescent, 29% of the Moon is Illuminated
Aug 30
Waning Crescent
Sep 5
New
Sep 12
First Quarter
Sep 19
Full
Sep 26
Last Quarter

Hourly Weather History & Observations

Time (CDT) Temp. Heat Index Dew Point Humidity Pressure Visibility Wind Dir Wind Speed Gust Speed Precip Events Conditions
12:52 AM 78.1 °F - 72.0 °F 81% 29.95 in 10.0 mi Calm Calm - N/A   Clear
1:52 AM 77.0 °F - 72.0 °F 84% 29.95 in 10.0 mi SSE 3.5 mph - N/A   Clear
2:52 AM 75.9 °F - 71.1 °F 85% 29.95 in 10.0 mi SE 3.5 mph - N/A   Clear
3:52 AM 75.0 °F - 70.0 °F 84% 29.94 in 10.0 mi SSE 3.5 mph - N/A   Clear
4:52 AM 75.0 °F - 70.0 °F 84% 29.94 in 10.0 mi South 3.5 mph - N/A   Scattered Clouds
5:52 AM 73.9 °F - 70.0 °F 87% 29.95 in 10.0 mi SSE 3.5 mph - N/A   Partly Cloudy
6:52 AM 75.0 °F - 70.0 °F 84% 29.96 in 10.0 mi Calm Calm - N/A   Mostly Cloudy
7:52 AM 77.0 °F - 71.1 °F 82% 29.97 in 10.0 mi South 4.6 mph - N/A   Partly Cloudy
8:52 AM 82.0 °F 86.7 °F 72.0 °F 71% 29.97 in 10.0 mi South 9.2 mph - N/A   Clear
9:52 AM 84.9 °F 90.1 °F 71.1 °F 63% 29.96 in 10.0 mi SSW 9.2 mph - N/A   Clear
10:52 AM 90.0 °F 96.4 °F 71.1 °F 54% 29.96 in 10.0 mi South 11.5 mph - N/A   Clear
11:52 AM 93.0 °F 99.0 °F 70.0 °F 47% 29.94 in 10.0 mi SW 9.2 mph - N/A   Clear
12:52 PM 95.0 °F 100.7 °F 69.1 °F 43% 29.93 in 10.0 mi SSW 6.9 mph - N/A   Clear
1:52 PM 97.0 °F 102.8 °F 69.1 °F 40% 29.91 in 10.0 mi Variable 6.9 mph - N/A   Clear
2:52 PM 98.1 °F 104.4 °F 69.1 °F 39% 29.89 in 10.0 mi SW 8.1 mph - N/A   Clear
3:52 PM 98.1 °F 106.5 °F 71.1 °F 42% 29.87 in 10.0 mi South 10.4 mph - N/A   Clear
4:52 PM 97.0 °F 103.5 °F 70.0 °F 41% 29.86 in 10.0 mi South 11.5 mph - N/A   Clear
5:52 PM 96.1 °F 102.9 °F 70.0 °F 43% 29.85 in 10.0 mi South 11.5 mph - N/A   Clear
6:52 PM 93.9 °F 102.1 °F 72.0 °F 49% 29.84 in 10.0 mi South 4.6 mph - N/A   Clear
7:52 PM 88.0 °F 95.6 °F 73.0 °F 61% 29.84 in 10.0 mi SSE 5.8 mph - N/A   Clear
8:52 PM 84.9 °F 91.4 °F 73.0 °F 67% 29.83 in 10.0 mi SSE 6.9 mph - N/A   Clear
9:52 PM 82.9 °F 88.8 °F 73.0 °F 72% 29.84 in 10.0 mi SSE 5.8 mph - N/A   Clear
10:52 PM 81.0 °F 85.2 °F 72.0 °F 74% 29.84 in 10.0 mi South 3.5 mph - N/A   Clear
11:52 PM 78.1 °F - 72.0 °F 81% 29.84 in 10.0 mi SSE 3.5 mph - N/A   Clear